Location: Bagnara
(41.0500°N, 14.7833°E)
Time: 08:39:02
(UTC+00:00)

Cosmos 1408 - Pass Details

Date: 20 June 2021
Orbit: 466 x 492 km, 82.6° (Epoch: 01 August)

Event Time Altitude Azimuth Distance (km) Brightness Sun altitude
Exits shadow 00:19:23 26° 300° (WNW) 1,005 4.2 -23.1°
Drops below altitude 10° 00:22:02 10° 343° (NNW) 1,689 6.0 -22.9°
Sets 00:24:23 0° 356° (N) 2,579 7.4 -22.8°
